ANIK F3

Last updated on Mon Jul 07 2025 00:02:43 GMT+0000 (Coordinated Universal Time)

1 31102U 07009A 25187.61308272 .00000016 00000+0 00000+0 0 9990 2 31102 0.3018 88.4592 0002224 32.2139 266.1378 1.00272303 43094
UTC large
Height (km)
Speed (km/s)
/
Latitude / Longitude
Inclination (degrees)
Orbital Period (minutes)
Azimuth
Elevation
Range (km)
Doppler Factor

Next 0 passes for location: London (51.5072 / 0.1276)

Sorry there are no passes over London.